TJS-7

Last updated on Mon Jun 22 2026 00:03:07 GMT+0000 (Coordinated Universal Time)

1 49115U 21077A 26172.65554318 -.00000125 00000+0 00000+0 0 9999 2 49115 0.3427 264.9658 0003574 116.8842 24.4664 1.00277710 9591
UTC large
Height (km)
Speed (km/s)
/
Latitude / Longitude
Inclination (degrees)
Orbital Period (minutes)
Azimuth
Elevation
Range (km)
Doppler Factor

Next 0 passes for location: London (51.5072 / 0.1276)

No passes found over London.
TJS-7